Location: Étang Rond
(42.7927°N, 1.0661°E)
Time: 22:06:41
(UTC+00:00)

Cosmos 1802 Rocket - Pass Details

Date: 08 November 2025
Orbit: 953 x 1011 km, 82.9° (Epoch: 13 December)

Event Time Altitude Azimuth Distance (km) Brightness Sun altitude
Rises 05:04:26 0° 349° (N) 3,738 6.9 -17.6°
Reaches altitude 10° 05:07:00 10° 347° (NNW) 2,777 6.2 -17.1°
Maximum altitude 05:13:19 69° 266° (W) 1,058 4.0 -15.9°
Drops below altitude 10° 05:19:30 10° 185° (S) 2,720 6.4 -14.8°
Sets 05:22:00 0° 183° (S) 3,655 7.1 -14.4°
